Regional Weather Roundup
Issued by NWS

Home | Current Version | Previous Version | Graphics & Text | Print | Product List | Glossary On
Versions: 1 2 3 4 5 6 7 8 9 10 11 12 13 14 15 16 17 18 19 20 21 22 23 24 25 26 27 28 29 30 31 32 33 34 35 36 37 38 39 40 41 42 43 44 45 46 47 48 49 50
000
ASUS45 KCYS 200710
RWRWY

WYOMING REGIONAL WEATHER ROUNDUP
NATIONAL WEATHER SERVICE CHEYENNE WY
100 AM MDT SAT SEP 20 2014

NOTE:  "FAIR" INDICATES FEW OR NO CLOUDS BELOW 12,000 FEET
WITH NO SIGNIFICANT WEATHER AND/OR OBSTRUCTIONS TO VISIBILITY.

WYZ001-200800-
YELLOWSTONE NATIONAL PARK

CITY           SKY/WX    TMP DP  RH WIND       PRES   REMARKS
LK YELLOWSTONE   N/A     41  38  89 CALM      30.33S
W YELLOWSTONE  NOT AVBL

$$
WYZ002>013-054>058-071-098>099-200800-
NORTHERN WYOMING

CITY           SKY/WX    TMP DP  RH WIND       PRES   REMARKS
JACKSON        CLEAR     41  39  93 N10       30.26R
CODY             N/A    N/A N/A N/A MISG        N/A
GREYBULL       PTCLDY    61  43  51 W3        30.06R
WORLAND        CLEAR     54  45  71 S7        30.07R
SHERIDAN       PTCLDY    52  46  80 SW3       30.07R
BUFFALO        PTCLDY    54  46  74 W6        30.13R
GILLETTE       CLOUDY    57  47  69 CALM      30.08R
HULETT         FAIR      55  46  71 MISG      30.08
NEWCASTLE      FAIR      57  43  58 NW7       30.07

$$
WYZ014>020-022>026-101>103-200800-
CENTRAL WYOMING

CITY           SKY/WX    TMP DP  RH WIND       PRES   REMARKS
BIG PINEY      CLEAR     46  35  65 N7        30.28R
PINEDALE       SUNNY     41  36  81 W7        30.29S
DUBOIS         FAIR      48  36  61 NW14      30.26S
LANDER         CLEAR     58  34  40 CALM      30.14R
RIVERTON       CLEAR     57  40  52 N8        30.15R
CASPER         CLEAR     50  42  74 N8        30.15R
DOUGLAS        CLEAR     53  44  71 W3        30.14R

$$
WYZ021-027>030-104>119-200800-
SOUTHERN WYOMING

CITY           SKY/WX    TMP DP  RH WIND       PRES   REMARKS
EVANSTON       CLEAR     55  37  50 E5        30.29S
KEMMERER       SUNNY     50  36  57 N7        30.30S
FORT BRIDGER   FAIR      56  37  49 CALM      30.32R
ROCK SPRINGS   CLEAR     55  34  45 SW6       30.25R
DIXON          FAIR      49  40  71 CALM      30.26R
RAWLINS        CLEAR     53  32  44 CALM      30.22R
SARATOGA       FAIR      46  36  66 SE6       30.25R
LARAMIE        CLEAR     50  39  66 S8        30.22S
CHEYENNE       CLEAR     62  39  42 NW8       30.14R
TORRINGTON     CLEAR     61  49  64 N3        30.03R
PINE BLUFFS    FAIR      54  45  71 CALM      30.08R

$$



USA.gov is the U.S. government's official web portal to all federal, state and local government web resources and services.